ATLAS 5 CENTAUR R/B, 46919

Orbit data source: Space-Track

ATLAS 5 CENTAUR R/B, 46919 is space debris originally from a launch on Fri, 13 Nov 2020 UTC launched from the Air Force Eastern Test Range (AFETR). Debris objects in space refer to the collection of defunct objects orbiting the Earth. Examples of debris include non-operational satellites, rocket bodies, and fragments generated from explosions, collisions, or faulty payload assembly.

Loading next visibility...
Identifier
46919, 2020-083B
Orbit
Active
Country
Flag of USUS
Related business
Flag of USUnited Launch Alliance/Lockheed Martin (US)
Manufacturer
ULA Decatur
Mission
Spacecraft
Bus & Motor
CENTAUR SEC, RL10C-1
Mass
~2,020 kg wet, 2,020 kg dry
Launch date (UTC)
2020-11-13 (5 years ago)
Launch vehicle
Unknown
Launch site
Air Force Eastern Test Range (AFETR)
Object type
Payload
Rocket body
Debris
Shape & HBR
Cyl + 1 Nozzle, 5.8 m
Radar Cross Section
32.260 m²

Expand to show TLE details & history
Last TLE update: 10 hours ago

TLE from 10 hours ago
0 ATLAS 5 CENTAUR R/B
1 46919U 20083B   26038.06011436 -.00000054  00000-0  00000-0 0  9992
2 46919  58.9531 343.1382 0132595 221.3546 137.6668  3.86387948 40450
Epoch: 2026-02-07T01:26Z
TLE epoch observation values (Epoch: 2026-02-07T01:26:33.880Z)
Latitude
0.00003°
Longitude
-175.6976°
Altitude
10,946.81 km
Speed
4.773 km/s
True Right ascension
22h 52m 31s
True Declination
0° 00' 00"
Sunlit
Object was in daylight at epoch
Visualization orbit readout
Latitude
Unknown
Longitude
Unknown
Altitude
Unknown
Speed
Unknown
Apparent Right ascension
Unknown
Apparent Declination
Unknown
Sunlit
N/A
Visualization observer readout
Local Sidereal Time
14:04:52
Azimuth
Unknown
Elevation
Unknown
Doppler factor
Unknown
Orbital elements
Apogee altitude
11,003.894 km
Perigee altitude
10,548.972 km
Semi-major axis
17,154.57 km
Eccentricity
0.01326
Inclination
58.9531°
RAAN
343.1382°
Arg. of periapsis
221.3546°
True anomaly
138.6776°
Mean anomaly
137.6668°
Eccentric anomaly
138.17344°
Mean motion
0.96599 °/min
Orbital period
372.67 mins
BSTAR
0
Loading maneuver chart data...
Computing Atmospheric mass density...
Loading historical data...
Loading historical data...
Loading historical data...
Loading historical data...
Loading historical data...
Loading historical data...
Loading historical data...
Other satellites on launch #83 in the year 2020 (2020-11-13 UTC)

Documentation

Showing up to 5 results
|